Date/Time (UTC),ProbHail,ProbWind,ProbTor,MESH,VIL Density,Flash Rate,Max Flash Density,LJA sigma-level,Max 0-2km AzShear,LLAZ 98th%,MLAZ 98th%,MUCAPE,MLCAPE,CAPE -10C to -30C,MLCIN,SRH 0-1km AGL,EBShear,MeanWind 0-1km AGL,Norm. Sat. Growth Rate,PWAT,WBZ,AvgBeamHgt,size
2019/04/23 10:56,12,5,0,0.71,1.4,2,0.14,0.0,3,3,3,1756,922,483,41,70,51.1,10.8,0.9,1.0,8.3,3.8,71
2019/04/23 10:58,15,5,0,0.71,1.4,3,0.19,0.0,4,4,4,1756,922,483,41,70,51.1,10.8,0.9,1.0,8.3,3.8,70
2019/04/23 11:00,15,6,0,0.73,1.5,3,0.19,0.0,4,4,4,1785,922,488,42,73,51.2,11.1,0.9,1.0,8.3,3.7,61
2019/04/23 11:02,15,6,0,0.73,1.5,3,0.19,0.0,4,4,4,1798,924,489,43,74,51.2,11.2,0.9,1.0,8.3,3.7,86
2019/04/23 11:04,22,8,0,0.73,1.5,22,0.32,0.0,5,4,4,1849,929,494,51,77,48.6,11.8,0.9,1.1,8.1,3.3,390
2019/04/23 11:06,24,8,0,0.72,1.5,22,0.39,0.0,5,4,4,1828,924,493,43,79,51.4,11.4,0.9,1.0,8.2,3.5,91
2019/04/23 11:08,24,8,0,0.72,1.5,22,0.39,0.0,6,6,6,1853,924,498,44,81,51.3,11.6,0.9,1.0,8.2,3.4,75
2019/04/23 11:10,24,8,0,0.72,1.5,22,0.39,0.0,6,6,5,1863,924,499,44,82,51.2,11.6,0.9,1.0,8.2,3.3,96
2019/04/23 11:12,14,5,0,0.62,1.6,7,0.39,0.0,6,6,5,1883,924,502,45,84,51.1,11.8,0.9,1.0,8.2,3.2,79
2019/04/23 11:14,25,8,0,0.82,1.6,9,0.39,0.0,5,5,4,1894,924,503,46,85,50.9,11.9,0.9,1.0,8.2,3.1,88
2019/04/23 11:16,25,8,0,0.83,1.8,9,0.39,0.0,5,5,4,1921,923,506,47,88,50.6,12.0,0.9,1.0,8.2,3.0,91
2019/04/23 11:18,24,8,0,0.83,1.8,10,0.43,1.4,5,4,4,1937,923,508,47,89,50.4,12.1,0.9,1.0,8.2,3.0,98
2019/04/23 11:20,24,8,0,0.83,1.8,10,0.43,0.0,5,4,4,1947,923,510,48,90,50.1,12.1,0.9,1.0,8.2,2.9,105
2019/04/23 11:22,24,8,0,0.83,1.8,10,0.43,0.0,5,4,4,1989,922,515,49,93,49.5,12.3,0.9,1.0,8.1,2.7,105
2019/04/23 11:24,27,8,0,0.85,1.8,10,0.43,0.0,4,4,4,1992,922,516,49,93,49.4,12.3,0.9,1.0,8.1,2.7,114
2019/04/23 11:26,25,8,0,0.85,1.7,6,0.43,0.0,4,4,4,2027,919,521,51,97,48.9,12.5,0.9,1.0,8.1,2.6,109
2019/04/23 11:28,30,11,0,0.96,2.3,6,0.43,0.0,4,4,4,2043,917,523,51,99,48.9,12.6,0.9,1.0,8.1,2.5,103
2019/04/23 11:30,28,9,0,0.96,2.3,6,0.43,0.0,4,4,3,2066,910,530,53,100,48.0,12.7,0.9,1.0,8.1,2.4,86
2019/04/23 11:32,57,19,0,1.26,2.5,20,0.44,13.3,5,4,4,2031,883,532,59,90,45.4,12.5,0.9,1.0,8.0,2.2,227
2019/04/23 11:34,61,19,0,1.26,2.5,21,0.44,0.3,6,4,5,2040,881,534,59,90,45.5,12.6,0.9,1.0,8.0,2.2,220
2019/04/23 11:36,61,27,0,1.26,2.5,21,0.44,0.0,7,5,6,2041,871,538,60,90,45.3,12.6,0.9,1.0,8.0,2.1,246
2019/04/23 11:38,51,15,0,1.14,2.0,21,0.44,0.0,7,5,4,2041,870,539,60,90,45.3,12.6,0.9,1.0,8.0,2.1,234
2019/04/23 11:40,31,9,0,0.81,1.9,21,0.44,0.9,7,5,4,2041,861,541,61,90,45.2,12.6,0.9,1.0,8.0,2.0,222
2019/04/23 11:42,25,7,0,0.79,1.8,20,0.44,0.2,4,4,4,2041,857,544,61,90,45.2,12.6,0.9,1.0,8.0,1.9,210
2019/04/23 11:44,22,6,0,0.73,1.8,20,0.44,0.0,5,4,4,2025,843,546,63,87,45.0,12.7,0.9,1.0,8.0,1.8,345
2019/04/23 11:46,28,8,0,0.73,1.8,26,0.44,2.3,5,4,4,2028,837,548,65,88,45.1,12.7,0.9,1.1,8.0,1.7,394
2019/04/23 11:48,37,9,0,0.64,1.6,35,0.45,1.5,5,4,4,2023,833,550,65,87,45.1,12.7,0.9,1.1,8.0,1.6,359
2019/04/23 11:50,50,13,0,0.79,1.9,35,0.45,0.0,4,4,4,2017,829,550,67,87,45.0,12.7,0.9,1.1,8.0,1.6,372
2019/04/23 11:52,61,19,0,0.94,2.0,35,0.64,0.9,4,4,3,2017,828,550,67,86,45.0,12.7,0,1.1,8.0,1.6,375
2019/04/23 11:54,69,25,0,1.13,2.1,35,0.64,0.0,4,4,3,2004,934,536,34,63,49.9,10.9,0,1.1,8.2,1.5,387
2019/04/23 11:56,66,26,0,1.13,2.3,33,0.69,0.3,4,3,3,2009,937,537,33,64,49.9,11.0,0,1.1,8.1,1.4,425
2019/04/23 11:58,72,26,0,1.16,2.3,36,0.69,0.4,5,3,3,2009,938,537,34,63,49.6,11.1,0,1.1,8.2,1.3,401
2019/04/23 12:00,74,26,0,1.16,2.3,38,0.87,0.2,4,3,3,2001,934,536,36,60,49.2,11.1,0,1.1,8.2,1.3,216
2019/04/23 12:02,74,26,0,1.16,2.3,38,0.87,0.0,4,3,3,1990,936,533,38,59,49.1,11.2,0,1.1,8.2,1.1,223
2019/04/23 12:04,69,26,0,1.07,1.9,38,0.87,0.0,4,3,4,1992,942,534,36,60,49.1,11.4,0,1.1,8.2,1.1,237
2019/04/23 12:06,63,25,0,0.99,2.0,38,0.87,0.0,4,3,4,1979,939,531,39,59,49.0,11.3,0,1.1,8.2,1.1,210
2019/04/23 12:08,28,9,0,0.79,2.0,21,0.87,1.0,3,3,3,1987,950,533,36,62,49.2,11.6,0,1.1,8.2,1.0,237
2019/04/23 12:10,62,26,0,1.17,2.3,26,0.87,0.6,4,3,4,1977,952,530,37,62,49.2,11.6,0,1.1,8.2,1.0,247
2019/04/23 12:12,67,26,0,1.19,2.3,28,0.87,0.2,4,3,3,1963,954,526,38,62,49.1,11.7,0,1.1,8.2,0.9,240
2019/04/23 12:14,82,33,0,1.19,2.3,52,0.95,5.6,4,3,4,1957,959,524,38,63,49.1,11.8,0,1.1,8.2,0.9,282
2019/04/23 12:16,82,33,0,1.19,2.3,52,0.95,0.0,4,4,4,1947,959,521,38,63,49.1,11.8,0,1.1,8.2,0.8,289
2019/04/23 12:18,86,33,0,1.26,2.4,52,0.95,1.4,4,4,3,1942,963,519,38,63,49.1,11.8,0,1.1,8.2,0.8,296
2019/04/23 12:20,86,33,0,1.26,2.4,52,0.95,0.0,5,4,4,1937,969,518,38,65,49.0,11.9,0,1.1,8.2,0.7,354
2019/04/23 12:22,87,40,0,1.33,2.4,51,0.95,0.6,5,4,4,1924,976,513,38,67,49.0,12.0,0,1.1,8.2,0.7,360
2019/04/23 12:24,89,40,0,1.44,2.6,51,0.95,0.0,5,4,3,1920,983,512,37,69,48.9,12.0,0,1.1,8.2,0.6,393
2019/04/23 12:26,87,40,0,1.44,2.9,43,0.95,0.0,4,3,3,1912,990,510,37,70,48.8,12.1,0,1.1,8.2,0.6,402
2019/04/23 12:28,86,40,0,1.44,2.9,43,0.95,0.2,4,3,4,1903,1005,507,36,74,48.6,12.2,0,1.1,8.2,0.5,361
2019/04/23 12:30,84,33,0,1.36,2.9,39,0.95,0.0,4,3,4,1917,1012,512,33,80,48.8,12.6,0,1.1,8.2,0.5,245
2019/04/23 12:32,69,25,0,1.17,2.8,36,0.95,0.0,4,3,3,1873,1023,497,34,78,48.2,12.3,0,1.1,8.2,0.5,368
2019/04/23 12:34,64,25,0,1.05,2.3,36,0.95,0.0,5,3,4,1860,1037,493,33,81,48.0,12.3,0,1.1,8.3,0.4,411
2019/04/23 12:36,54,19,0,1.05,2.3,30,0.95,0.0,5,3,3,1851,1042,491,33,82,47.9,12.3,0,1.1,8.3,0.4,407
2019/04/23 12:38,37,13,0,0.96,3.1,21,0.95,0.0,3,3,3,1872,1038,497,32,87,48.1,12.6,0,1.1,8.3,0.3,232
2019/04/23 12:40,67,53,0,1.25,3.1,32,0.95,6.5,6,4,4,1798,1058,480,32,83,47.6,12.2,0,1.1,8.3,0.5,353
2019/04/23 12:42,67,25,0,1.25,3.1,32,0.95,0.0,6,4,3,1676,1080,467,30,85,47.4,11.8,0,1.1,8.3,0.5,201
2019/04/23 12:44,67,25,0,1.25,2.4,32,0.95,0.8,6,4,3,1752,1087,475,30,85,47.5,12.0,0,1.1,8.3,0.5,544
2019/04/23 12:46,67,25,0,1.24,2.6,32,0.79,0.0,4,3,3,1746,1095,474,29,86,47.4,12.0,0,1.1,8.3,0.5,550
2019/04/23 12:48,46,15,0,1.04,2.6,27,0.79,0.0,4,3,2,1617,1113,458,26,81,47.3,11.5,0,1.1,8.3,0.7,85
2019/04/23 12:50,46,15,0,1.04,2.6,27,0.69,0.3,4,3,2,1617,1113,458,26,81,47.3,11.5,0,1.1,8.3,0.7,91
2019/04/23 12:52,23,7,0,0.74,2.1,22,0.69,1.1,3,2,3,1640,1129,463,24,90,47.3,11.5,0,1.1,8.3,0.6,296
2019/04/23 12:54,17,5,0,0.61,1.6,22,0.69,0.0,3,2,2,1631,1138,462,23,92,47.2,11.5,0,1.1,8.3,0.7,266
2019/04/23 12:56,20,6,0,0.66,1.8,22,0.69,0.0,3,2,3,1629,1142,461,22,93,47.2,11.5,0,1.1,8.3,0.7,286
2019/04/23 12:58,20,6,0,0.66,1.8,22,0.69,0.9,4,3,4,1620,1149,458,21,93,47.2,11.4,0,1.1,8.3,0.7,269
2019/04/23 13:00,18,5,0,0.66,1.8,19,0.69,0.0,4,3,3,1616,1151,457,20,93,47.2,11.4,0,1.1,8.3,0.8,286
2019/04/23 13:02,15,5,0,0.63,1.7,19,0.69,0.0,3,3,4,1604,1155,454,19,90,47.2,11.3,0,1.1,8.3,0.8,255
2019/04/23 13:04,11,4,0,0.52,2.0,19,0.69,0.2,3,3,3,1643,1150,461,20,93,47.3,11.4,0,1.1,8.3,0.8,367
2019/04/23 13:06,13,5,0,0.56,2.0,20,0.69,1.5,3,3,3,1649,1154,463,21,95,47.3,11.4,0,1.1,8.3,0.7,415
2019/04/23 13:08,15,5,0,0.56,2.0,22,0.69,0.3,3,3,3,1642,1158,462,19,96,47.3,11.3,0,1.1,8.3,0.8,358
2019/04/23 13:10,15,5,0,0.56,2.0,22,0.69,0.0,4,3,3,1634,1158,457,18,95,47.3,11.2,0,1.1,8.3,0.8,323
2019/04/23 13:12,22,8,0,0.64,2.0,28,0.69,2.6,4,3,3,1623,1163,454,17,95,47.3,11.1,0,1.1,8.3,0.9,284
2019/04/23 13:14,22,8,0,0.64,1.9,28,0.69,0.0,4,3,3,1629,1164,456,18,97,47.2,11.1,0,1.1,8.4,0.9,323
2019/04/23 13:16,26,8,0,0.69,2.1,28,0.66,0.4,4,3,3,1620,1167,453,17,96,47.2,11.1,0,1.1,8.4,1.0,302
2019/04/23 13:18,29,9,0,0.69,2.2,32,0.7,1.2,4,3,3,1623,1171,455,17,97,47.0,11.1,0,1.1,8.4,1.0,341
2019/04/23 13:20,36,11,0,0.79,2.5,32,0.7,0.0,4,3,3,1615,1171,454,17,97,47.0,11.0,0,1.1,8.4,1.0,342
2019/04/23 13:22,32,11,0,0.79,2.5,32,0.7,0.0,4,3,4,1586,1173,447,15,94,47.0,10.7,0,1.1,8.4,1.3,105
2019/04/23 13:24,44,13,0,0.87,2.5,32,0.7,0.5,3,3,3,1614,1171,454,17,97,47.0,11.0,0,1.1,8.4,1.0,350
2019/04/23 13:26,28,11,0,0.87,2.5,21,0.7,0.5,3,3,4,1533,1104,421,14,113,48.9,10.6,0,1.1,8.4,1.1,361
2019/04/23 13:28,21,8,0,0.87,2.4,17,0.7,0.0,4,3,3,1533,1096,421,14,109,48.6,10.6,0,1.1,8.4,1.1,393
2019/04/23 13:30,18,8,0,0.8,2.5,21,0.7,0.7,3,3,3,1535,1083,422,14,106,48.1,10.5,0,1.1,8.4,1.2,347
2019/04/23 13:32,18,7,0,0.76,2.5,21,0.7,0.0,3,3,3,1535,1081,422,14,106,48.0,10.5,0,1.1,8.4,1.3,364
2019/04/23 13:34,18,7,0,0.76,2.5,21,0.7,1.5,4,3,3,1535,1081,422,14,104,47.9,10.6,0,1.1,8.4,1.3,383
2019/04/23 13:36,15,6,0,0.74,2.2,21,0.7,0.0,4,3,3,1535,1076,422,14,102,47.6,10.7,0,1.0,8.4,1.3,416
2019/04/23 13:38,20,8,0,0.82,2.6,20,0.7,0.0,4,4,4,1536,1071,422,14,100,47.4,10.6,0,1.0,8.4,1.3,371
2019/04/23 13:40,20,8,0,0.82,2.6,20,0.7,0.7,4,4,3,1536,1066,422,14,98,47.2,10.7,0,1.0,8.4,1.4,383
2019/04/23 13:42,20,8,0,0.82,2.6,19,0.7,0.0,5,4,4,1533,1062,421,14,96,47.0,10.8,0,1.0,8.4,1.4,381
2019/04/23 13:44,16,7,0,0.8,2.5,17,0.7,0.5,5,4,3,1534,1058,421,15,94,46.9,10.8,0,1.0,8.4,1.4,371
2019/04/23 13:46,10,5,0,0.61,2.0,17,0.7,0.0,5,4,4,1530,1054,421,15,92,46.7,11.0,0,1.0,8.4,1.5,388
2019/04/23 13:48,8,4,0,0.58,1.9,15,0.7,1.2,5,4,3,1533,1052,421,15,91,46.7,10.9,0,1.0,8.4,1.5,387
2019/04/23 13:50,5,3,0,0.43,1.7,15,0.59,0.0,4,4,4,1550,1023,423,16,91,45.8,10.6,0,1.0,8.4,1.7,100
2019/04/23 13:52,4,3,0,0.43,1.7,13,0.59,0.0,4,4,3,1533,1027,422,16,85,46.1,11.0,0,1.0,8.4,1.6,220
2019/04/23 13:54,5,3,0,0.44,1.7,15,0.62,1.7,4,4,3,1433,967,389,11,88,47.5,11.0,0,1.0,8.5,1.7,233
2019/04/23 13:56,5,3,0,0.44,1.9,15,0.62,0.0,4,3,3,1430,966,389,11,86,47.6,11.1,0,1.0,8.5,1.7,227
2019/04/23 13:58,5,3,0,0.44,2.0,15,0.62,0.0,4,3,3,1429,956,392,12,83,47.7,11.2,0,1.0,8.5,1.8,238
2019/04/23 14:00,5,3,0,0.45,2.0,15,0.62,0.8,4,3,3,1430,952,392,13,81,47.8,11.2,0,1.0,8.5,1.8,236
2019/04/23 14:02,8,4,0,0.59,2.2,14,0.62,0.2,4,3,3,1426,944,394,13,77,47.9,11.3,0,1.0,8.5,1.9,220
2019/04/23 14:04,9,4,0,0.59,2.2,17,0.62,0.6,5,3,4,1432,941,396,14,75,48.0,11.4,0,1.0,8.5,2.0,303
2019/04/23 14:06,18,7,0,0.72,2.2,24,0.64,1.7,6,5,4,1434,938,396,14,73,48.0,11.4,0,1.0,8.6,2.0,224
2019/04/23 14:08,30,11,0,0.77,2.4,30,0.78,1.5,7,5,4,1465,930,398,15,71,48.0,11.4,0,1.0,8.6,2.1,270
2019/04/23 14:10,64,53,0,1.02,2.5,53,1.15,10.3,7,6,4,1472,928,399,15,69,48.0,11.5,0,1.0,8.6,2.2,271
2019/04/23 14:12,70,53,1,1.12,3.0,53,1.15,0.0,7,6,6,1472,929,399,16,69,48.0,11.5,0,1.0,8.6,2.2,271
2019/04/23 14:14,91,69,1,1.91,3.1,58,1.3,1.8,7,7,6,1469,934,400,16,67,48.1,11.7,0,1.0,8.6,2.3,276
2019/04/23 14:16,91,69,1,1.91,3.1,58,1.3,0.0,7,7,6,1485,931,401,17,66,48.3,11.6,0,1.0,8.6,2.4,243
2019/04/23 14:18,91,73,2,1.91,3.3,58,1.3,0.5,8,7,6,1489,935,403,17,65,48.2,11.7,0,1.0,8.6,2.5,258
2019/04/23 14:20,91,74,2,2.12,3.6,58,1.3,0.0,8,7,6,1469,940,401,17,66,48.0,11.8,0,1.0,8.6,2.4,200
2019/04/23 14:22,88,73,2,2.63,3.6,42,1.3,0.5,8,7,5,1488,941,406,17,65,48.0,11.8,0,1.0,8.6,2.7,249
2019/04/23 14:24,88,71,1,2.63,3.6,42,1.3,0.0,8,6,6,1488,943,406,17,65,48.0,11.9,0,1.0,8.6,2.7,227
2019/04/23 14:26,85,69,1,2.63,3.5,38,1.3,0.8,9,6,6,1482,951,411,17,65,47.7,12.0,0,1.0,8.6,2.8,251
2019/04/23 14:28,83,58,1,1.86,3.0,38,1.3,0.0,7,6,6,1485,954,416,18,64,47.5,12.0,0,1.0,8.6,2.9,250
2019/04/23 14:30,83,69,1,1.86,3.0,38,1.3,0.6,7,6,6,1483,959,420,18,64,47.3,12.0,0,1.0,8.6,3.0,253
2019/04/23 14:32,74,69,1,1.43,3.0,38,1.3,0.0,7,6,6,1485,962,425,18,64,47.0,12.1,0,1.0,8.6,3.1,266
2019/04/23 14:34,65,68,1,1.43,3.0,28,1.3,0.0,7,6,6,1485,962,426,18,64,46.9,12.1,0,1.0,8.6,3.1,263
2019/04/23 14:36,62,63,1,1.35,3.0,28,1.3,0.0,7,6,6,1480,968,435,18,63,46.5,12.1,0,1.0,8.6,3.2,229
2019/04/23 14:38,51,46,1,1.33,3.0,22,1.3,0.0,8,5,3,1485,966,435,19,63,46.4,12.1,0,1.0,8.6,3.2,212
2019/04/23 14:40,10,8,1,0.67,2.7,15,1.3,0.0,8,5,3,1470,973,442,19,63,46.1,12.2,0,1.0,8.6,3.3,207
2019/04/23 14:42,10,4,0,0.67,2.7,14,1.3,0.0,7,5,4,1465,976,442,19,64,46.1,12.3,0,1.0,8.6,3.3,202
2019/04/23 14:44,3,2,0,0.39,2.7,5,1.3,0.0,7,5,4,1466,968,447,20,62,45.6,12.3,0,1.0,8.6,3.5,322
2019/04/23 14:46,3,2,0,0.39,2.7,5,0.78,0.0,6,5,4,1460,978,447,19,63,45.8,12.3,0,1.0,8.6,3.4,205
2019/04/23 14:48,4,2,0,0.41,2.7,5,0.78,0.0,6,5,5,1456,978,451,19,63,45.6,12.4,0,1.0,8.6,3.5,203
2019/04/23 14:50,4,2,0,0.41,2.4,5,0.66,0.0,6,5,3,1466,966,454,20,61,45.2,12.3,0,1.0,8.6,3.7,256
2019/04/23 14:52,4,2,0,0.41,2.4,7,0.66,0.0,6,5,3,1460,965,457,21,61,44.9,12.4,0,1.0,8.6,3.8,263
2019/04/23 14:54,4,2,0,0.41,2.4,7,0.66,0.0,4,3,3,1458,963,458,21,61,44.8,12.4,0,1.0,8.7,3.8,260
2019/04/23 14:56,3,2,0,0.38,2.3,7,0.66,0.0,4,3,3,1402,957,373,20,70,44.7,12.1,0,1.0,8.7,4.0,258
2019/04/23 14:58,2,1,0,0.33,2.2,7,0.56,0.0,5,4,3,1396,961,373,20,71,44.6,12.2,0,1.0,8.7,4.0,270
2019/04/23 15:00,2,1,0,0.26,2.2,3,0.56,0.0,6,4,3,1399,955,376,22,72,44.3,12.2,0,1.0,8.7,4.2,251
2019/04/23 15:02,2,1,0,0.26,2.0,2,0.47,0.0,7,4,3,1412,941,380,24,72,44.1,12.2,0,1.1,8.8,4.3,235
2019/04/23 15:04,1,1,0,0.19,1.8,1,0.33,0.0,7,5,4,1395,953,383,23,74,44.1,12.3,0,1.0,8.8,4.3,220
2019/04/23 15:06,2,1,0,0.26,2.1,1,0.33,0.0,7,5,4,1418,935,387,25,72,44.1,12.2,0,1.1,8.8,4.5,256
2019/04/23 15:08,3,1,0,0.35,2.1,1,0.14,0.0,7,5,3,1422,928,392,26,72,44.1,12.1,0,1.1,8.8,4.6,285
2019/04/23 15:10,3,2,0,0.44,2.5,4,0.14,0.0,6,5,4,1430,922,396,27,72,44.1,12.1,0,1.1,8.8,4.7,262
2019/04/23 15:12,3,2,0,0.44,2.5,5,0.15,0.0,6,5,4,1422,925,404,28,74,44.1,12.2,0,1.1,8.9,4.8,244
2019/04/23 15:14,3,2,0,0.44,2.5,5,0.15,0.0,6,5,4,1429,919,404,28,73,44.1,12.2,0,1.1,8.9,4.9,213
2019/04/23 15:16,3,2,0,0.43,2.8,5,0.15,0.0,6,5,4,1440,910,407,29,72,44.1,12.1,0,1.1,8.9,5.0,277
2019/04/23 15:18,3,2,0,0.43,2.8,5,0.2,0.0,6,5,4,1446,901,410,31,72,44.4,12.1,0,1.1,8.9,5.1,212
2019/04/23 15:20,3,1,0,0.38,2.8,5,0.2,0.0,5,4,4,1447,894,414,32,73,44.5,12.1,0,1.1,8.9,5.2,255
2019/04/23 15:22,2,1,0,0.33,2.5,5,0.2,0.0,5,4,3,1461,882,415,33,70,44.5,12.0,0,1.1,8.9,5.2,286
2019/04/23 15:24,2,1,0,0.26,2.4,4,0.2,0.0,4,3,3,1448,893,419,34,73,44.6,12.1,0,1.1,8.9,5.2,238
2019/04/23 15:26,2,1,0,0.26,2.4,4,0.2,0.0,4,3,3,1454,884,421,35,73,44.7,12.1,0,1.1,9.0,5.3,240
2019/04/23 15:28,2,1,0,0.33,2.0,8,0.21,0.0,4,3,3,1457,876,422,36,72,44.7,12.0,0,1.1,9.0,5.3,226
2019/04/23 15:30,4,3,0,0.44,2.0,13,0.31,1.9,4,3,2,1460,874,422,37,72,44.8,12.0,0,1.1,9.0,5.3,216
2019/04/23 15:32,6,3,0,0.52,2.2,13,0.31,0.0,3,2,2,1460,873,422,37,71,44.8,12.0,0,1.1,9.0,5.3,210
2019/04/23 15:34,7,4,0,0.6,2.2,13,0.31,0.0,4,2,3,1460,870,422,38,71,44.8,12.0,0,1.1,9.0,5.3,228
2019/04/23 15:36,7,4,0,0.6,2.2,13,0.31,0.0,4,3,3,1460,869,423,39,72,44.8,12.0,0,1.1,9.0,5.3,208
2019/04/23 15:38,9,4,0,0.65,2.3,12,0.45,1.1,3,3,3,1461,863,422,40,71,44.8,11.9,0,1.1,9.0,5.4,219
2019/04/23 15:40,10,4,0,0.7,2.3,12,0.45,0.0,4,3,3,1463,858,421,42,70,44.8,11.8,0,1.1,9.0,5.4,208
2019/04/23 15:42,15,5,0,0.77,2.3,18,0.63,1.6,6,5,5,1460,857,422,43,71,44.7,11.8,0,1.1,9.0,5.3,219
2019/04/23 15:44,19,7,0,0.87,2.5,18,0.63,0.0,6,5,5,1451,862,422,44,72,44.5,11.9,0,1.1,9.0,5.3,217
2019/04/23 15:46,19,7,0,0.87,2.5,18,0.63,1.0,6,5,4,1446,858,422,46,72,44.3,11.8,0,1.1,9.0,5.3,273
2019/04/23 15:48,46,22,0,1.19,2.6,24,0.66,1.8,6,5,4,1445,853,422,47,71,44.3,11.7,0,1.1,9.0,5.3,277
2019/04/23 15:50,55,19,0,1.3,2.7,24,0.66,0.0,9,5,6,1439,856,423,48,72,44.1,11.8,0,1.1,9.0,5.3,221
2019/04/23 15:52,55,27,0,1.3,2.7,24,0.66,0.0,9,6,7,1427,852,423,52,72,44.0,11.7,0,1.1,9.0,5.3,243
2019/04/23 15:54,58,19,0,1.3,2.7,24,0.66,0.2,7,6,6,1336,824,384,58,94,46.7,9.0,0,1.1,9.0,5.3,228
2019/04/23 15:56,43,15,0,1.19,2.6,21,0.66,0.8,7,6,7,1337,812,387,59,94,46.6,8.9,0,1.1,9.0,5.3,216
2019/04/23 15:58,60,25,0,1.31,2.5,30,0.66,1.2,8,6,6,1337,804,389,59,95,46.6,8.8,0,1.1,9.0,5.3,216
2019/04/23 16:00,62,25,0,1.31,2.9,30,0.66,0.0,8,6,6,1336,797,389,60,95,46.7,8.8,0,1.1,9.0,5.4,242
2019/04/23 16:02,62,33,0,1.35,2.9,30,0.66,1.0,8,6,4,1335,791,391,61,95,46.9,8.7,0,1.1,9.0,5.4,228
2019/04/23 16:04,62,33,0,1.35,2.9,30,0.66,0.0,8,6,5,1335,797,391,60,96,46.7,8.8,0,1.1,9.0,5.4,215
2019/04/23 16:06,58,25,0,1.35,2.8,24,0.66,0.0,7,5,4,1335,793,392,60,96,46.8,8.7,0,1.1,9.0,5.4,214
2019/04/23 16:08,42,15,0,1.06,2.8,24,0.66,0.5,8,6,5,1333,798,393,60,96,46.8,8.8,0,1.1,9.0,5.3,220
2019/04/23 16:10,23,9,1,0.97,2.7,15,0.66,0.3,10,7,5,1331,802,394,60,97,46.7,8.8,0,1.1,9.0,5.3,243
2019/04/23 16:12,28,11,1,1.07,3.1,15,0.66,0.0,10,8,5,1328,796,396,60,97,46.9,8.8,0,1.1,8.9,5.4,231
2019/04/23 16:14,46,22,1,1.07,3.1,27,0.66,2.8,12,9,6,1325,803,399,60,99,46.8,8.8,0,1.1,8.9,5.3,222
2019/04/23 16:16,46,15,1,1.07,3.1,27,0.66,0.0,12,9,5,1325,792,400,61,98,47.1,8.7,0,1.1,8.9,5.4,216
2019/04/23 16:18,41,22,2,1.04,2.7,27,0.66,0.3,12,9,5,1325,815,402,59,100,46.5,8.9,0,1.1,8.9,5.3,251
2019/04/23 16:20,41,22,1,1.04,2.7,27,0.63,0.0,11,8,6,1325,816,404,59,101,46.3,8.9,0,1.1,8.9,5.3,239
2019/04/23 16:22,20,7,1,0.87,2.6,17,0.63,0.0,11,8,6,1326,817,405,59,101,46.2,9.0,0,1.1,8.9,5.3,258
2019/04/23 16:24,20,7,1,0.87,2.4,17,0.63,0.4,11,8,4,1333,814,408,60,103,46.1,8.9,0,1.1,8.9,5.4,251
2019/04/23 16:26,11,5,0,0.69,2.3,16,0.63,0.6,7,6,4,1340,822,409,60,104,45.7,9.0,0,1.1,8.9,5.3,281
2019/04/23 16:28,8,4,0,0.57,2.2,16,0.63,0.0,7,6,4,1344,821,410,61,104,45.7,9.0,0,1.1,8.9,5.4,270
2019/04/23 16:30,4,3,0,0.39,2.2,16,0.63,0.0,8,6,4,1355,812,412,63,105,45.7,8.9,0,1.1,8.9,5.4,243
2019/04/23 16:32,8,4,0,0.56,2.2,16,0.63,1.6,8,7,4,1362,821,414,63,106,45.4,8.9,0,1.1,8.9,5.4,240
2019/04/23 16:34,7,4,0,0.58,2.5,15,0.63,0.0,8,7,4,1366,825,415,62,106,45.1,9.0,0,1.1,8.9,5.4,236
2019/04/23 16:36,9,4,0,0.61,2.5,14,0.63,0.0,8,7,4,1378,822,416,64,107,45.0,8.9,0,1.1,8.9,5.5,215
2019/04/23 16:38,13,5,0,0.73,2.6,15,0.63,1.2,8,6,5,1386,831,417,64,108,44.7,9.0,0,1.1,8.9,5.5,222
2019/04/23 16:40,13,5,0,0.73,2.6,15,0.63,0.0,6,5,4,1388,831,417,65,108,44.7,9.0,0,1.1,8.9,5.5,239
2019/04/23 16:42,13,5,0,0.73,2.6,15,0.63,0.8,9,6,5,1403,848,417,64,110,44.1,9.0,0,1.1,8.9,5.5,225
2019/04/23 16:44,11,4,0,0.68,2.4,15,0.63,0.6,9,6,6,1403,848,417,64,110,44.1,9.0,0,1.1,8.9,5.5,225
2019/04/23 16:46,11,5,0,0.75,2.8,15,0.49,0.0,9,6,6,1406,844,417,65,109,44.3,9.0,0,1.1,8.9,5.6,233
2019/04/23 16:48,14,5,0,0.75,2.8,19,0.57,1.3,9,5,4,1411,862,418,64,111,43.8,9.1,0,1.1,9.0,5.6,205
2019/04/23 16:50,21,6,0,0.85,2.8,20,0.57,0.2,10,5,5,1408,879,418,63,112,43.3,9.2,0,1.1,9.0,5.6,200
2019/04/23 16:52,51,15,0,1.05,2.9,33,0.62,3.2,10,5,5,1406,892,418,62,112,42.8,9.2,0,1.1,9.0,5.6,213
2019/04/23 16:54,51,15,0,1.05,3.0,33,0.62,0.0,10,5,5,1414,868,418,64,111,43.7,9.0,0,1.1,9.0,5.7,248
2019/04/23 16:56,51,15,0,1.07,3.0,33,0.68,1.2,9,4,5,1404,910,418,60,113,42.3,9.2,0,1.1,9.0,5.5,236
2019/04/23 16:58,51,15,0,1.07,3.0,34,0.68,0.3,9,4,5,1404,910,418,60,113,42.3,9.2,0,1.1,9.0,5.5,236
2019/04/23 17:00,56,19,0,1.12,3.1,34,0.68,0.0,9,4,5,1402,911,419,59,112,42.2,9.2,0,1.1,9.0,5.4,290
2019/04/23 17:02,65,33,1,1.21,3.1,34,0.68,0.2,6,6,6,1403,986,417,33,134,43.8,9.8,0,1.2,9.1,5.4,229
2019/04/23 17:04,70,33,2,1.34,3.1,34,0.68,1.2,10,6,5,1398,984,418,33,134,43.9,9.8,0,1.2,9.1,5.3,234
2019/04/23 17:06,73,53,5,1.42,3.0,35,0.68,0.2,11,8,5,1398,1018,420,30,134,43.5,9.9,0,1.2,9.1,5.2,250
2019/04/23 17:08,77,33,5,1.51,3.0,35,0.68,0.0,11,9,5,1388,1019,421,30,133,43.6,9.8,0,1.2,9.1,5.1,222
2019/04/23 17:10,77,53,5,1.51,3.0,35,0.68,0.0,11,9,5,1388,1024,421,30,133,43.5,9.8,0,1.2,9.1,5.1,200
2019/04/23 17:12,77,53,5,1.51,3.0,35,0.68,0.0,11,9,5,1379,1005,420,31,131,44.1,9.6,0,1.2,9.2,4.9,284
2019/04/23 17:14,40,13,1,0.99,2.7,28,0.68,0.0,10,5,4,1374,1020,421,29,130,44.2,9.5,0,1.2,9.2,4.7,264
2019/04/23 17:16,19,5,1,0.82,2.7,17,0.68,0.6,8,4,4,1374,1029,421,28,130,44.1,9.5,0,1.2,9.2,4.7,277
2019/04/23 17:18,9,4,1,0.61,2.5,14,0.68,0.0,8,4,4,1371,1044,421,26,129,44.3,9.4,0,1.2,9.2,4.5,260
2019/04/23 17:20,10,4,0,0.59,2.4,21,0.68,2.3,4,3,4,1372,1062,421,24,128,44.3,9.3,0,1.2,9.2,4.4,226
2019/04/23 17:22,10,4,0,0.56,2.4,21,0.68,0.0,4,2,4,1369,1058,421,24,127,44.4,9.1,0,1.2,9.3,4.3,256
2019/04/23 17:24,10,4,0,0.56,2.4,21,0.68,0.4,3,2,4,1370,1066,421,23,126,44.4,9.0,0,1.2,9.3,4.3,242
2019/04/23 17:26,10,4,0,0.56,2.4,21,0.68,0.0,3,2,5,1369,1083,421,20,124,44.6,8.7,0,1.2,9.3,4.1,213
2019/04/23 17:28,22,6,0,0.72,2.5,25,0.73,2.0,4,2,5,1372,1099,422,19,124,44.5,8.7,0,1.2,9.3,4.0,235
2019/04/23 17:30,25,7,1,0.72,2.5,28,0.73,0.4,6,4,5,1375,1119,425,17,123,44.4,8.6,0,1.2,9.3,3.9,256
2019/04/23 17:32,25,7,1,0.72,2.6,28,0.73,0.0,7,4,4,1377,1144,430,15,122,44.4,8.4,0,1.2,9.3,3.8,256
2019/04/23 17:34,17,5,1,0.78,2.7,16,0.35,0.8,6,3,5,1383,1174,439,12,121,44.2,8.2,Storm,1.2,9.4,3.6,242
2019/04/23 17:36,16,5,1,0.71,2.1,19,0.46,0.5,7,3,5,1386,1189,443,11,121,44.2,8.2,Storm,1.2,9.4,3.6,240
2019/04/23 17:38,22,6,1,0.63,2.3,29,0.68,0.7,6,4,6,1395,1220,454,9,120,44.1,8.1,Storm,1.2,9.4,3.4,211
2019/04/23 17:40,23,6,1,0.75,2.5,23,0.63,0.3,6,6,5,1406,1252,465,7,119,43.9,8.0,Storm,1.2,9.4,3.2,203
2019/04/23 17:42,33,8,1,0.81,2.7,25,0.68,0.3,6,5,5,1409,1259,468,7,119,43.9,7.9,Storm,1.2,9.4,3.2,207
2019/04/23 17:44,33,8,1,0.76,2.7,28,0.76,0.3,7,5,5,1418,1270,470,7,118,44.0,7.9,Storm,1.2,9.4,3.1,220
2019/04/23 17:46,20,5,1,0.74,2.8,19,0.47,0.1,7,6,4,1421,1276,472,6,118,44.1,7.8,Storm,1.2,9.4,3.1,218
2019/04/23 17:48,38,11,1,0.97,2.9,21,0.48,0.2,7,5,4,1435,1298,479,6,117,44.1,7.8,Storm,1.2,9.4,3.0,202
2019/04/23 17:50,36,9,1,0.89,2.8,26,0.59,0.2,7,5,5,1451,1321,485,5,116,44.2,7.7,Storm,1.2,9.4,2.9,217
2019/04/23 17:52,46,13,1,0.96,2.9,29,0.46,0.2,5,4,5,1481,1355,494,4,114,44.3,7.6,Storm,1.2,9.4,2.7,247
2019/04/23 17:54,39,11,0,0.8,3.0,28,0.33,0.2,5,4,6,2045,1788,532,3,118,45.1,9.9,Storm,1.2,9.5,2.6,274
2019/04/23 17:56,40,11,0,0.62,2.4,41,0.53,0.3,5,3,6,2045,1788,532,3,118,45.1,9.9,Storm,1.2,9.5,2.6,292
2019/04/23 17:58,15,5,0,0.54,2.5,22,0.47,0.1,7,3,6,2065,1810,537,3,116,45.4,9.8,Storm,1.2,9.5,2.5,274
2019/04/23 18:00,7,3,1,0.45,2.1,14,0.25,0.0,7,4,5,2085,1829,543,2,115,45.5,9.8,Storm,1.2,9.5,2.5,206
2019/04/23 18:02,6,2,1,0.35,2.1,9,0.16,0.0,7,4,6,2106,1847,550,2,113,45.6,9.8,Storm,1.2,9.5,2.4,202
2019/04/23 18:04,9,3,0,0.36,2.3,16,0.18,0.0,7,3,6,2126,1864,556,2,110,45.7,9.8,Storm,1.2,9.5,2.3,317
2019/04/23 18:06,6,2,0,0.35,2.0,5,0.24,0.0,6,3,7,2140,1880,563,2,108,45.8,9.7,Storm,1.2,9.5,2.2,208
2019/04/23 18:08,6,3,1,0.35,1.9,9,0.36,0.0,5,3,10,2155,1899,572,1,104,45.9,9.7,Storm,1.2,9.5,2.2,209
2019/04/23 18:10,25,6,1,0.79,2.6,12,0.39,0.0,5,3,9,2166,1909,579,1,102,45.9,9.6,Storm,1.2,9.5,2.1,215
2019/04/23 18:12,39,9,1,0.83,2.6,23,0.57,0.1,4,3,9,2160,1907,578,1,100,46.0,9.6,Storm,1.2,9.5,2.1,341
2019/04/23 18:14,25,6,1,0.7,2.9,15,0.5,0.0,4,3,8,2160,1918,586,1,95,46.2,9.5,Storm,1.2,9.5,2.0,317
2019/04/23 18:16,41,11,1,0.93,3.0,19,0.5,0.0,4,3,8,2159,1922,594,1,90,46.2,9.4,Storm,1.2,9.5,1.9,288
2019/04/23 18:18,81,25,1,1.49,2.7,28,0.7,0.1,4,3,8,2155,1919,596,1,89,46.1,9.4,Storm,1.2,9.5,1.8,309
2019/04/23 18:20,88,33,1,1.55,2.7,37,0.91,0.1,3,2,8,2158,1922,599,1,85,46.1,9.4,Storm,1.2,9.5,1.7,260
2019/04/23 18:22,88,40,1,1.43,3.2,43,1.05,0.1,7,3,8,2149,1917,598,1,81,46.2,9.3,Storm,1.2,9.5,1.6,271
2019/04/23 18:24,88,40,0,1.59,3.5,30,0.73,0.1,7,3,7,2093,1865,600,0,63,45.6,9.1,Storm,1.2,9.5,1.3,309
2019/04/23 18:26,85,33,0,1.4,3.3,36,0.95,0.1,4,2,7,2088,1859,596,0,65,45.7,9.1,Storm,1.2,9.5,1.3,396
2019/04/23 18:28,70,25,0,1.42,3.5,19,0.5,0.0,3,3,7,2069,1841,592,0,61,45.7,9.0,Storm,1.2,9.5,1.2,415
2019/04/23 18:30,48,13,0,1.15,3.3,12,0.26,0.0,3,3,7,2088,1859,592,0,66,46.0,8.8,Storm,1.2,9.6,1.3,169
2019/04/23 18:32,61,19,1,1.26,2.9,16,0.39,0.0,5,3,10,2080,1852,590,0,65,46.0,8.8,Storm,1.2,9.6,1.3,176
2019/04/23 18:34,49,13,1,1.17,3.1,11,0.36,0.0,5,4,10,2073,1846,588,0,64,46.0,8.7,Storm,1.2,9.6,1.2,161
2019/04/23 18:36,35,8,1,0.89,3.1,15,0.3,0.0,5,4,10,1999,1777,580,0,55,45.6,8.5,Storm,1.2,9.5,1.0,276
2019/04/23 18:38,33,8,0,0.93,3.0,11,0.22,0.0,5,3,9,1987,1766,579,0,51,45.4,8.5,Storm,1.2,9.5,1.0,286
2019/04/23 18:40,50,13,1,0.9,3.0,25,0.65,0.0,5,3,9,1977,1756,578,0,50,45.4,8.5,Storm,1.2,9.5,0.9,289
2019/04/23 18:42,31,7,1,0.66,2.7,25,0.89,0.0,3,2,9,1948,1731,570,0,53,45.6,8.3,Storm,1.2,9.5,0.9,267
2019/04/23 18:44,27,6,1,0.68,2.4,23,0.66,0.0,3,2,9,1938,1721,567,0,52,45.6,8.2,Storm,1.2,9.5,0.9,272
2019/04/23 18:46,40,9,0,0.63,2.5,38,0.82,0.1,3,3,6,1920,1702,563,0,50,45.5,8.1,Storm,1.2,9.5,0.8,274
2019/04/23 18:48,19,5,0,0.65,2.4,15,0.47,0.0,3,3,6,1920,1702,563,0,50,45.5,8.1,Storm,1.2,9.5,0.8,274
2019/04/23 18:50,22,5,0,0.69,2.2,17,0.53,0.0,4,3,5,1899,1682,558,0,49,45.4,8.0,Storm,1.2,9.5,0.7,248
2019/04/23 18:52,30,7,0,0.89,2.3,10,0.31,0.0,5,3,6,1889,1673,556,0,48,45.4,7.9,Storm,1.2,9.5,0.7,272